DW2199 Weather Reports


Display with metric or nautical units.
time (UTC)temp
F
wind
direction
speed
MPH
gust
MPH
rain 1hr
in
rain 24hr
in
rain mn
in
humidity
%
barometer
mb
20260831211556 76 203 0.0 0.0 0.00 0.00 0.00 73 1016.8
20260831210054 77 203 0.0 1.0 0.00 0.00 0.00 73 1016.9
20260831204553 77 203 0.0 1.0 0.00 0.00 0.00 71 1016.9
20260831203100 77 203 0.0 2.0 0.00 0.00 0.00 69 1016.9
20260831201553 78 203 0.0 1.0 0.00 0.00 0.00 66 1017.1
20260831200031 78 207 0.0 1.0 0.00 0.00 0.00 66 1017.2
20260831194533 78 198 0.0 4.0 0.00 0.00 0.00 62 1017.3
20260831193017 79 222 0.0 1.0 0.00 0.00 0.00 60 1017.5
20260831191518 80 211 0.0 2.0 0.00 0.00 0.00 56 1017.6
20260831190015 81 197 0.0 3.0 0.00 0.00 0.00 56 1017.8
20260831184514 81 188 0.0 3.0 0.00 0.00 0.00 57 1017.8
20260831183012 82 235 0.0 3.0 0.00 0.00 0.00 58 1017.8
20260831181509 81 188 0.0 3.0 0.00 0.00 0.00 59 1018.1
20260831180005 80 188 0.0 3.0 0.00 0.00 0.00 58 1018.4
20260831174502 78 210 0.0 3.0 0.00 0.00 0.00 62 1018.5
20260831173055 78 210 0.0 2.0 0.00 0.00 0.00 64 1018.7
20260831171545 77 194 0.0 2.0 0.00 0.00 0.00 65 1018.8
20260831170044 77 207 0.0 2.0 0.00 0.00 0.00 64 1019.1
20260831164544 78 193 0.0 2.0 0.00 0.00 0.00 64 1019.0
20260831163040 78 207 0.0 3.0 0.00 0.00 0.00 66 1019.1
20260831161541 76 200 0.0 3.0 0.00 0.00 0.00 68 1019.4
20260831160035 76 203 0.0 3.0 0.00 0.00 0.00 68 1019.5
20260831154534 76 210 0.0 2.0 0.00 0.00 0.00 67 1019.6
20260831153013 76 207 0.0 3.0 0.00 0.00 0.00 69 1019.7
20260831151514 76 230 0.0 2.0 0.00 0.00 0.00 69 1019.7
20260831150113 76 208 0.0 1.0 0.00 0.00 0.00 69 1019.8
20260831144600 75 201 0.0 3.0 0.00 0.00 0.00 70 1019.6
20260831143054 75 214 0.0 1.0 0.00 0.00 0.00 71 1019.8
20260831141539 73 207 0.0 2.0 0.00 0.00 0.00 74 1019.9
20260831140037 72 200 0.0 3.0 0.00 0.00 0.00 78 1020.0
20260831134523 70 190 0.0 1.0 0.00 0.00 0.00 83 1019.9
20260831133031 67 201 0.0 2.0 0.00 0.00 0.00 86 1020.0
20260831131522 66 182 0.0 2.0 0.00 0.00 0.00 89 1020.0
20260831130021 64 205 0.0 2.0 0.00 0.00 0.00 92 1020.1
20260831124521 63 200 0.0 2.0 0.00 0.00 0.00 95 1020.3
20260831123020 62 197 0.0 0.0 0.00 0.00 0.00 97 1020.3
20260831121519 60 197 0.0 0.0 0.00 0.00 0.00 97 1020.3
20260831120025 59 197 0.0 0.0 0.00 0.00 0.00 97 1020.3
20260831114559 58 197 0.0 0.0 0.00 0.00 0.00 97 1020.2
20260831113106 57 197 0.0 0.0 0.00 0.00 0.00 97 1020.1
20260831111545 56 197 0.0 0.0 0.00 0.00 0.00 96 1020.0
20260831110046 56 197 0.0 0.0 0.00 0.00 0.00 96 1019.8
20260831104543 56 197 0.0 0.0 0.00 0.00 0.00 96 1019.4
20260831103039 56 197 0.0 0.0 0.00 0.00 0.00 96 1019.3
20260831101549 56 197 0.0 0.0 0.00 0.00 0.00 96 1019.3
20260831100037 56 197 0.0 0.0 0.00 0.00 0.00 96 1019.3
20260831094534 57 197 0.0 0.0 0.00 0.00 0.00 96 1019.1
20260831093035 57 197 0.0 0.0 0.00 0.00 0.00 96 1018.9
20260831091534 57 197 0.0 0.0 0.00 0.00 0.00 96 1018.9
20260831090014 57 197 0.0 0.0 0.00 0.00 0.00 96 1018.9
20260831084501 57 197 0.0 0.0 0.00 0.00 0.00 96 1019.0
20260831083101 58 197 0.0 0.0 0.00 0.00 0.00 96 1018.7
20260831081604 58 197 0.0 0.0 0.00 0.00 0.00 96 1018.7
20260831080135 58 197 0.0 0.0 0.00 0.00 0.00 96 1018.6
20260831074555 59 197 0.0 0.0 0.00 0.00 0.00 96 1018.5
20260831073112 59 197 0.0 0.0 0.00 0.00 0.00 96 1018.4
20260831071555 59 197 0.0 0.0 0.00 0.00 0.00 96 1018.5
20260831070051 59 197 0.0 0.0 0.00 0.00 0.00 96 1018.5
20260831064533 60 197 0.0 0.0 0.00 0.00 0.00 96 1018.5
20260831063041 60 197 0.0 0.0 0.00 0.00 0.00 95 1018.2
20260831061513 60 197 0.0 0.0 0.00 0.00 0.00 95 1018.3
20260831060014 60 197 0.0 0.0 0.00 0.00 0.00 95 1018.4
20260831054557 60 197 0.0 0.0 0.00 0.00 0.00 95 1018.3
20260831053056 61 197 0.0 0.0 0.00 0.00 0.00 95 1018.4
20260831051555 61 196 0.0 0.0 0.00 0.00 0.00 95 1018.4
20260831050054 61 197 0.0 0.0 0.00 0.00 0.00 95 1018.4
20260831044558 61 197 0.0 1.0 0.00 0.00 0.00 95 1018.4
20260831043052 62 197 0.0 1.0 0.00 0.00 0.00 95 1018.4
20260831041605 62 197 0.0 1.0 0.00 0.00 0.00 95 1018.3
20260831040049 63 197 0.0 0.0 0.00 0.00 0.00 94 1018.2
20260831034535 63 197 0.0 0.0 0.00 0.00 0.00 95 1018.2
20260831033039 63 197 0.0 0.0 0.00 0.00 0.00 95 1018.1
20260831031535 63 197 0.0 0.0 0.00 0.00 0.00 95 1017.9
20260831030032 63 197 0.0 0.0 0.00 0.00 0.00 94 1017.9
20260831024532 64 197 0.0 1.0 0.00 0.00 0.00 94 1017.8
20260831023030 64 197 0.0 0.0 0.00 0.00 0.00 94 1017.7
20260831021543 64 197 0.0 0.0 0.00 0.00 0.00 94 1017.7
20260831020029 64 197 0.0 1.0 0.00 0.00 0.00 94 1017.6
20260831014512 64 197 0.0 0.0 0.00 0.00 0.00 94 1017.5
20260831013009 64 197 0.0 0.0 0.00 0.00 0.00 94 1017.2
20260831011556 64 197 0.0 0.0 0.00 0.00 0.00 94 1017.0
20260831010119 64 197 0.0 0.0 0.00 0.00 0.00 94 1016.9
20260831004559 65 197 0.0 0.0 0.00 0.00 0.00 94 1016.8
20260831003103 65 197 0.0 0.0 0.00 0.00 0.00 94 1016.8
20260831001550 65 197 0.0 0.0 0.00 0.00 0.00 93 1016.6
20260831000049 66 197 0.0 0.0 0.00 0.00 0.00 93 1016.3
20260830234547 66 197 0.0 0.0 0.00 0.00 0.00 92 1016.1
20260830233045 67 197 0.0 0.0 0.00 0.00 0.00 92 1016.0
20260830231531 67 197 0.0 0.0 0.00 0.00 0.00 91 1016.1
20260830230034 68 198 0.0 0.0 0.00 0.00 0.00 91 1016.0
20260830224533 68 198 0.0 0.0 0.00 0.00 0.00 90 1016.0
20260830223031 69 197 0.0 0.0 0.00 0.00 0.00 90 1016.0
20260830221530 69 197 0.0 1.0 0.00 0.00 0.00 89 1016.0
20260830220034 70 197 0.0 1.0 0.00 0.00 0.00 89 1015.8
20260830214529 71 197 0.0 2.0 0.00 0.00 0.00 88 1015.6
20260830213028 72 200 0.0 1.0 0.00 0.00 0.00 90 1015.5